Regional Weather Roundup
Issued by NWS

Home | Current Version | Previous Version | Text Only | Print | Product List | Glossary Off
Versions: 1 2 3 4 5 6 7 8 9 10 11 12 13 14 15 16 17 18 19 20 21 22 23 24 25 26 27 28 29 30 31 32 33 34 35 36 37 38 39 40 41 42 43 44 45 46 47 48 49 50

000
ASUS45 KBOI 272110
RWRID

IDAHO REGIONAL WEATHER ROUNDUP
NATIONAL WEATHER SERVICE BOISE ID
300 PM MDT THU APR 27 2017

NOTE: "FAIR" INDICATES FEW OR NO CLOUDS BELOW 12000 FEET
WITH NO SIGNIFICANT WEATHER AND/OR OBSTRUCTIONS TO VISIBILITY

IDZ012-014-272200-
SOUTHWEST IDAHO


CITY           SKY/WX    TMP DP  RH WIND       PRES   REMARKS
BOISE          CLOUDY    49  27  42 NW20G29   29.94F
CALDWELL       FAIR      52  26  36 W18G29    29.96S
MOUNTAIN HOME  MOSUNNY   50  26  40 NW26G33   29.94S
$$

IDZ016-017-272200-
SOUTHCENTRAL IDAHO


CITY           SKY/WX    TMP DP  RH WIND       PRES   REMARKS
BURLEY         LGT RAIN  46  24  42 W25G41    29.83F
JEROME         FAIR      47  24  40 W31G41    29.86F
TWIN FALLS     PTSUNNY   45  28  51 W26G37    29.89R
$$

IDZ019>023-272200-
SOUTHEAST IDAHO


CITY           SKY/WX    TMP DP  RH WIND       PRES   REMARKS
IDAHO FALLS    CLOUDY    43  34  70 SW16G24   29.75R
POCATELLO      LGT SNOW  35  33  92 NW9       29.81S FOG     WCI  28
REXBURG        CLOUDY    42  33  70 S14G25    29.72R
$$

IDZ006-010-011-018-031-032-272200-
CENTRAL IDAHO MOUNTAINS


CITY           SKY/WX    TMP DP  RH WIND       PRES   REMARKS
MCCALL         LGT SNOW  33  25  72 NW16G24   29.88R WCI  23
HAILEY         MOSUNNY   48  21  34 W14G23    29.74F
STANLEY          N/A     35  16  45 W9G22     29.82S WCI  28
SALMON         CLOUDY    45  27  49 NE12      29.78F
CHALLIS        PTSUNNY   47  21  35 NE12      29.75F
$$

IDZ002-004-006-007-026-272200-
NORTHERN IDAHO


CITY           SKY/WX    TMP DP  RH WIND       PRES   REMARKS
LEWISTON       CLOUDY    53  29  39 NW8       29.93S
LOWELL           N/A     42  37  82 S3        29.99S
COEUR D`ALENE  LGT RAIN  41  37  86 S7        29.90S
MULLAN PASS    CLOUDY    28  27  96 VRB3      29.81S
$$



USA.gov is the U.S. government's official web portal to all federal, state and local government web resources and services.